Regional Weather Roundup
Issued by NWS

Home | Current Version | Previous Version | Text Only | Print | Product List | Glossary On
Versions: 1 2 3 4 5 6 7 8 9 10 11 12 13 14 15 16 17 18 19 20 21 22 23 24 25 26 27 28 29 30 31 32 33 34 35 36 37 38 39 40 41 42 43 44 45 46 47 48 49 50
000
ASMX46 KSGX 041111
RWRMX

MEXICAN WEATHER ROUNDUP
NATIONAL WEATHER SERVICE SAN DIEGO CA
300 AM PST SUN DEC 04 2016

BAJA CALIFORNIA

CITY           SKY/WX    TMP DP  RH WIND       PRES   REMARKS
ENSENADA NW      N/A     55  32  41 N1        30.02F
S.J. DEL CABO    N/A    N/A N/A N/A MISG        N/A
TIJUANA        CLEAR     48  30  49 CALM      30.09

NORTHWESTERN MEXICO

CITY           SKY/WX    TMP DP  RH WIND       PRES   REMARKS
HERMOSILLO     PTCLDY    52  50  93 CALM      29.94F

NORTHEASTERN MEXICO

CITY           SKY/WX    TMP DP  RH WIND       PRES   REMARKS
MONCLOVA         N/A    N/A N/A N/A MISG        N/A
MONTERREY      CLOUDY    57  55  94 NW14      29.83F
REYNOSA          N/A    N/A N/A N/A MISG        N/A
TORREON        MOCLDY    61  41  48 NW7       29.81
VICTORIA         N/A    N/A N/A N/A MISG        N/A

WESTERN MEXICO

CITY           SKY/WX    TMP DP  RH WIND       PRES   REMARKS
AGUASCALIENTES   N/A    N/A N/A N/A MISG        N/A
COLIMA           N/A    N/A N/A N/A MISG        N/A
DURANGO        PTCLDY    48  39  71 S7        29.88
GUADALAJARA      N/A    N/A N/A N/A MISG        N/A
MAZATLAN       CLOUDY    59  54  82 N12       29.84R
PTO. VALLARTA  CLOUDY    72  70  94 W8        29.83S
TEPIC            N/A    N/A N/A N/A MISG        N/A
URUAPAN          N/A    N/A N/A N/A MISG        N/A
ZACATECAS        N/A    N/A N/A N/A MISG        N/A

CENTRAL MEXICO

CITY           SKY/WX    TMP DP  RH WIND       PRES   REMARKS
CUERNAVACA       N/A    N/A N/A N/A MISG        N/A
LEON           PTCLDY    55  50  82 W7        30.15R
MEXICO CITY    PTCLDY    57  46  67 SE6       30.20S
MORELIA        PTCLDY    57  50  77 S6        30.12F
POZA RICA        N/A    N/A N/A N/A MISG        N/A
S. LUIS POTOSI PTCLDY    57  45  62 S5        30.03
TOLUCA         FOG       39  37  93 CALM      30.27  VSB 1/2
VERACRUZ         N/A    N/A N/A N/A MISG        N/A

SOUTHERN MEXICO

CITY           SKY/WX    TMP DP  RH WIND       PRES   REMARKS
ACAPULCO       CLEAR     75  72  88 N5        29.82F
B. DE HUATULCO   N/A    N/A N/A N/A MISG        N/A
MINATITLAN       N/A    N/A N/A N/A MISG        N/A
PTO. ESCONDIDO   N/A    N/A N/A N/A MISG        N/A
TAPACHULA      PTCLDY    73  72  94 CALM      29.84R
VILLAHERMOSA   PTCLDY    72  70  94 E7        29.79F

YUCATAN PENINSULA

CITY           SKY/WX    TMP DP  RH WIND       PRES   REMARKS
CAMPECHE         N/A    N/A N/A N/A MISG        N/A
CANCUN         PTCLDY    81  77  89 E8        29.88R
CHETUMAL         N/A    N/A N/A N/A MISG        N/A
C. DEL CARMEN    N/A    N/A N/A N/A MISG        N/A
COZUMEL        PTCLDY    77  75  94 CALM      29.84F
MERIDA         MOCLDY    75  73  94 E9        29.85R

$$





USA.gov is the U.S. government's official web portal to all federal, state and local government web resources and services.